Time,TemperatureF,DewpointF,PressureIn,WindDirection,WindDirectionDegrees,WindSpeedMPH,WindSpeedGustMPH,Humidity,HourlyPrecipIn,Conditions,Clouds,dailyrainin,SoftwareType,DateUTC
2016-02-09 00:05:00,26.0,24.0,29.65,SSW,196,1.0,6.0,93,-99.99,,,-99.99,,2016-02-09 05:05:00,
2016-02-09 00:23:00,26.0,24.0,29.65,WNW,297,0.0,4.0,93,-99.99,,,-99.99,,2016-02-09 05:23:00,
2016-02-09 00:36:00,25.0,23.0,29.65,WNW,287,1.0,4.0,93,-99.99,,,-99.99,,2016-02-09 05:36:00,
2016-02-09 00:44:00,24.0,22.0,29.65,SSE,161,1.0,7.0,92,-99.99,,,-99.99,,2016-02-09 05:44:00,
2016-02-09 00:55:00,24.0,22.0,29.65,SSE,161,1.0,7.0,92,-99.99,,,-99.99,,2016-02-09 05:55:00,
2016-02-09 01:04:00,24.0,22.0,29.65,SSW,196,0.0,5.0,92,-99.99,,,-99.99,,2016-02-09 06:04:00,
2016-02-09 01:13:00,24.0,22.0,29.65,SSW,196,0.0,5.0,92,-99.99,,,-99.99,,2016-02-09 06:13:00,
2016-02-09 01:23:00,24.0,22.0,29.66,South,173,0.0,4.0,92,-99.99,,,-99.99,,2016-02-09 06:23:00,
2016-02-09 01:34:00,24.0,22.0,29.65,SSW,192,0.0,6.0,93,-99.99,,,-99.99,,2016-02-09 06:34:00,
2016-02-09 01:45:00,24.0,22.0,29.65,SSW,192,0.0,6.0,93,-99.99,,,-99.99,,2016-02-09 06:45:00,
2016-02-09 01:57:00,23.0,21.0,29.65,SW,222,1.0,6.0,92,-99.99,,,-99.99,,2016-02-09 06:57:00,
2016-02-09 02:05:00,23.0,21.0,29.65,SW,222,1.0,6.0,92,-99.99,,,-99.99,,2016-02-09 07:05:00,
2016-02-09 02:13:00,22.0,20.0,29.65,SSE,149,0.0,-999.0,92,-99.99,,,-99.99,,2016-02-09 07:13:00,
2016-02-09 02:24:00,22.0,20.0,29.65,SSE,149,0.0,4.0,92,-99.99,,,-99.99,,2016-02-09 07:24:00,
2016-02-09 02:34:00,22.0,20.0,29.65,SSE,156,0.0,3.0,92,-99.99,,,-99.99,,2016-02-09 07:34:00,
2016-02-09 02:44:00,22.0,20.0,29.65,SSE,155,1.0,6.0,92,-99.99,,,-99.99,,2016-02-09 07:44:00,
2016-02-09 03:04:00,22.0,20.0,29.65,SSW,213,0.0,5.0,92,-99.99,,,-99.99,,2016-02-09 08:04:00,
2016-02-09 03:13:00,22.0,20.0,29.65,South,191,0.0,3.0,92,-99.99,,,-99.99,,2016-02-09 08:13:00,
2016-02-09 03:24:00,22.0,20.0,29.65,South,191,0.0,3.0,92,-99.99,,,-99.99,,2016-02-09 08:24:00,
2016-02-09 03:44:00,21.0,19.0,29.64,SSW,213,0.0,4.0,92,-99.99,,,-99.99,,2016-02-09 08:44:00,
2016-02-09 03:55:00,21.0,19.0,29.64,SSW,213,0.0,4.0,92,-99.99,,,-99.99,,2016-02-09 08:55:00,
2016-02-09 04:04:00,21.0,19.0,29.64,South,173,0.0,6.0,92,-99.99,,,-99.99,,2016-02-09 09:04:00,
2016-02-09 04:14:00,21.0,19.0,29.65,South,185,1.0,5.0,91,-99.99,,,-99.99,,2016-02-09 09:14:00,
2016-02-09 04:23:00,21.0,19.0,29.65,South,185,1.0,5.0,91,-99.99,,,-99.99,,2016-02-09 09:23:00,
2016-02-09 04:44:00,21.0,19.0,29.65,South,187,0.0,3.0,91,-99.99,,,-99.99,,2016-02-09 09:44:00,
2016-02-09 04:53:00,21.0,19.0,29.65,South,187,0.0,-999.0,91,-99.99,,,-99.99,,2016-02-09 09:53:00,
2016-02-09 05:04:00,21.0,19.0,29.65,South,176,1.0,9.0,91,-99.99,,,-99.99,,2016-02-09 10:04:00,
2016-02-09 05:13:00,21.0,19.0,29.65,South,176,1.0,9.0,91,-99.99,,,-99.99,,2016-02-09 10:13:00,
2016-02-09 05:24:00,21.0,19.0,29.66,SW,225,0.0,4.0,91,-99.99,,,-99.99,,2016-02-09 10:24:00,
2016-02-09 05:44:00,21.0,19.0,29.66,SSE,157,0.0,5.0,91,-99.99,,,-99.99,,2016-02-09 10:44:00,
2016-02-09 05:55:00,21.0,19.0,29.66,SSE,157,0.0,5.0,91,-99.99,,,-99.99,,2016-02-09 10:55:00,
2016-02-09 06:04:00,21.0,19.0,29.66,South,169,0.0,6.0,91,-99.99,,,-99.99,,2016-02-09 11:04:00,
2016-02-09 06:23:00,21.0,19.0,29.67,SSE,159,0.0,5.0,91,-99.99,,,-99.99,,2016-02-09 11:23:00,
2016-02-09 06:34:00,21.0,19.0,29.67,SSE,162,1.0,6.0,91,-99.99,,,-99.99,,2016-02-09 11:34:00,
2016-02-09 06:46:00,20.0,18.0,29.67,SSE,150,0.0,-999.0,91,-99.99,,,-99.99,,2016-02-09 11:46:00,
2016-02-09 06:54:00,20.0,18.0,29.67,SSE,150,0.0,4.0,91,-99.99,,,-99.99,,2016-02-09 11:54:00,
2016-02-09 07:04:00,20.0,18.0,29.68,South,178,1.0,6.0,91,-99.99,,,-99.99,,2016-02-09 12:04:00,
2016-02-09 07:13:00,20.0,18.0,29.68,South,178,1.0,6.0,91,-99.99,,,-99.99,,2016-02-09 12:13:00,
2016-02-09 07:24:00,20.0,18.0,29.68,South,180,0.0,6.0,91,-99.99,,,-99.99,,2016-02-09 12:24:00,
2016-02-09 07:34:00,20.0,18.0,29.68,SSE,160,0.0,4.0,91,-99.99,,,-99.99,,2016-02-09 12:34:00,
2016-02-09 07:45:00,20.0,18.0,29.68,SSE,160,0.0,4.0,91,-99.99,,,-99.99,,2016-02-09 12:45:00,
2016-02-09 07:54:00,20.0,18.0,29.69,South,169,1.0,7.0,91,-99.99,,,-99.99,,2016-02-09 12:54:00,
2016-02-09 08:04:00,20.0,18.0,29.69,SSW,200,2.0,6.0,92,-99.99,,,-99.99,,2016-02-09 13:04:00,
2016-02-09 08:13:00,20.0,18.0,29.69,South,176,0.0,4.0,92,-99.99,,,-99.99,,2016-02-09 13:13:00,
2016-02-09 08:24:00,20.0,18.0,29.69,South,176,0.0,4.0,92,-99.99,,,-99.99,,2016-02-09 13:24:00,
2016-02-09 08:34:00,20.0,18.0,29.70,South,173,1.0,5.0,92,-99.99,,,-99.99,,2016-02-09 13:34:00,
2016-02-09 08:44:00,21.0,19.0,29.70,SW,232,1.0,4.0,92,-99.99,,,-99.99,,2016-02-09 13:44:00,
2016-02-09 08:54:00,21.0,19.0,29.70,SW,232,1.0,-999.0,92,-99.99,,,-99.99,,2016-02-09 13:54:00,
2016-02-09 09:04:00,21.0,19.0,29.70,South,179,2.0,5.0,92,-99.99,,,-99.99,,2016-02-09 14:04:00,
2016-02-09 09:13:00,21.0,19.0,29.71,WSW,254,0.0,5.0,91,-99.99,,,-99.99,,2016-02-09 14:13:00,
2016-02-09 09:23:00,21.0,19.0,29.71,WSW,254,0.0,5.0,91,-99.99,,,-99.99,,2016-02-09 14:23:00,
2016-02-09 09:55:00,22.0,20.0,29.71,South,171,0.0,6.0,91,-99.99,,,-99.99,,2016-02-09 14:55:00,
2016-02-09 10:04:00,22.0,20.0,29.71,South,190,0.0,5.0,90,-99.99,,,-99.99,,2016-02-09 15:04:00,
2016-02-09 10:13:00,22.0,19.0,29.72,South,188,0.0,5.0,89,-99.99,,,-99.99,,2016-02-09 15:13:00,
2016-02-09 10:23:00,22.0,19.0,29.72,South,188,0.0,5.0,89,-99.99,,,-99.99,,2016-02-09 15:23:00,
2016-02-09 10:34:00,23.0,20.0,29.71,SSE,167,0.0,5.0,89,-99.99,,,-99.99,,2016-02-09 15:34:00,
2016-02-09 10:45:00,23.0,20.0,29.72,SSE,148,1.0,5.0,88,-99.99,,,-99.99,,2016-02-09 15:45:00,
2016-02-09 11:06:00,23.0,20.0,29.72,South,176,1.0,6.0,87,-99.99,,,-99.99,,2016-02-09 16:06:00,
2016-02-09 11:27:00,23.0,20.0,29.72,SSE,147,0.0,6.0,87,-99.99,,,-99.99,,2016-02-09 16:27:00,
2016-02-09 11:37:00,23.0,20.0,29.72,South,190,0.0,5.0,87,-99.99,,,-99.99,,2016-02-09 16:37:00,
2016-02-09 11:47:00,23.0,20.0,29.72,SSE,153,0.0,7.0,87,-99.99,,,-99.99,,2016-02-09 16:47:00,
2016-02-09 12:08:00,24.0,21.0,29.72,West,261,1.0,7.0,87,-99.99,,,-99.99,,2016-02-09 17:08:00,
2016-02-09 12:16:00,24.0,21.0,29.72,South,173,0.0,7.0,87,-99.99,,,-99.99,,2016-02-09 17:16:00,
2016-02-09 12:25:00,24.0,21.0,29.72,South,173,0.0,7.0,87,-99.99,,,-99.99,,2016-02-09 17:25:00,
2016-02-09 12:34:00,25.0,22.0,29.72,South,175,1.0,3.0,87,-99.99,,,-99.99,,2016-02-09 17:34:00,
2016-02-09 12:46:00,24.0,20.0,29.72,South,188,2.0,6.0,86,-99.99,,,-99.99,,2016-02-09 17:46:00,
2016-02-09 12:55:00,24.0,20.0,29.72,South,188,2.0,-999.0,86,-99.99,,,-99.99,,2016-02-09 17:55:00,
2016-02-09 13:04:00,24.0,20.0,29.71,ESE,102,1.0,7.0,85,-99.99,,,-99.99,,2016-02-09 18:04:00,
2016-02-09 13:13:00,25.0,21.0,29.71,SSW,198,1.0,7.0,85,-99.99,,,-99.99,,2016-02-09 18:13:00,
2016-02-09 13:24:00,25.0,21.0,29.71,SSW,198,1.0,7.0,85,-99.99,,,-99.99,,2016-02-09 18:24:00,
2016-02-09 13:34:00,25.0,21.0,29.71,SSW,206,0.0,7.0,84,-99.99,,,-99.99,,2016-02-09 18:34:00,
2016-02-09 14:04:00,25.0,21.0,29.71,South,178,1.0,5.0,83,-99.99,,,-99.99,,2016-02-09 19:04:00,
2016-02-09 14:13:00,25.0,21.0,29.71,South,178,1.0,5.0,83,-99.99,,,-99.99,,2016-02-09 19:13:00,
2016-02-09 14:23:00,25.0,21.0,29.71,South,178,1.0,5.0,83,-99.99,,,-99.99,,2016-02-09 19:23:00,
2016-02-09 14:34:00,25.0,21.0,29.71,ESE,120,1.0,7.0,84,-99.99,,,-99.99,,2016-02-09 19:34:00,
2016-02-09 14:44:00,25.0,21.0,29.72,South,176,0.0,7.0,84,-99.99,,,-99.99,,2016-02-09 19:44:00,
2016-02-09 14:55:00,25.0,21.0,29.72,South,176,0.0,7.0,84,-99.99,,,-99.99,,2016-02-09 19:55:00,
2016-02-09 15:04:00,25.0,21.0,29.72,SSE,163,1.0,6.0,84,-99.99,,,-99.99,,2016-02-09 20:04:00,
2016-02-09 15:13:00,25.0,21.0,29.72,SSW,207,1.0,7.0,84,-99.99,,,-99.99,,2016-02-09 20:13:00,
2016-02-09 15:24:00,25.0,21.0,29.72,SSW,207,1.0,7.0,84,-99.99,,,-99.99,,2016-02-09 20:24:00,
2016-02-09 15:34:00,25.0,21.0,29.72,South,182,1.0,5.0,85,-99.99,,,-99.99,,2016-02-09 20:34:00,
2016-02-09 15:55:00,25.0,21.0,29.73,SE,134,0.0,6.0,84,-99.99,,,-99.99,,2016-02-09 20:55:00,
2016-02-09 16:04:00,25.0,21.0,29.74,SSE,166,1.0,5.0,85,-99.99,,,-99.99,,2016-02-09 21:04:00,
2016-02-09 16:13:00,25.0,21.0,29.74,SSE,166,1.0,-999.0,85,-99.99,,,-99.99,,2016-02-09 21:13:00,
2016-02-09 16:34:00,24.0,20.0,29.75,SW,222,1.0,5.0,86,-99.99,,,-99.99,,2016-02-09 21:34:00,
2016-02-09 16:56:00,24.0,21.0,29.76,South,178,0.0,5.0,87,-99.99,,,-99.99,,2016-02-09 21:56:00,
2016-02-09 17:08:00,24.0,21.0,29.77,South,175,1.0,6.0,87,-99.99,,,-99.99,,2016-02-09 22:08:00,
2016-02-09 17:16:00,24.0,21.0,29.77,South,175,1.0,6.0,87,-99.99,,,-99.99,,2016-02-09 22:16:00,
2016-02-09 17:27:00,23.0,20.0,29.78,SSW,201,1.0,7.0,87,-99.99,,,-99.99,,2016-02-09 22:27:00,
2016-02-09 17:39:00,23.0,20.0,29.79,South,178,1.0,5.0,87,-99.99,,,-99.99,,2016-02-09 22:39:00,
2016-02-09 17:58:00,23.0,19.0,29.80,South,188,0.0,5.0,86,-99.99,,,-99.99,,2016-02-09 22:58:00,
2016-02-09 18:08:00,23.0,19.0,29.80,South,175,1.0,5.0,86,-99.99,,,-99.99,,2016-02-09 23:08:00,
2016-02-09 18:15:00,23.0,19.0,29.80,South,175,1.0,-999.0,86,-99.99,,,-99.99,,2016-02-09 23:15:00,
2016-02-09 18:25:00,23.0,19.0,29.81,South,190,1.0,6.0,86,-99.99,,,-99.99,,2016-02-09 23:25:00,